Home   Weather   Tarnów   Past weeks

Flag for Poland Past Weather in Tarnów, Poland — Yesterday and Last 2 Weeks

Now
19 °F

Fog.


Feels Like: 19 °F
Forecast: 21 / 24 °F
Wind: No wind

Location: Tarnow

Current Time: Jan 16, 2017 at 8:46:08 pm

Latest Report: Jan 16, 2017 at 7:00 pm


Visibility: 1 mi

Pressure: 30.30 "Hg

Humidity: 92%

Dew Point: 17 °F

Location of TarnówLocation

Past Weather in Tarnów — Graph

°F

Tarnów Temperature Yesterday

Maximum temperature yesterday: 33 °F (at 1:00 pm)
Minimum temperature yesterday: 21 °F (at 10:00 pm)
Average temperature yesterday: 29 °F

High & Low Weather Summary for the Past Weeks

 TemperatureHumidityPressure
High39 °F (Jan 4, 2:00 pm)96% (Jan 2, 7:00 pm)30.68 "Hg (Jan 2, 7:00 pm)
Low-10 °F (Jan 8, 5:00 am)49% (Jan 11, 2:00 pm)29.41 "Hg (Jan 4, 5:00 pm)
Average21 °F78%30.06 "Hg
* Reported Jan 1 7:00 pm — Jan 16 7:00 pm, Tarnów, Weather by CustomWeather, © 2017

Note: Actual official high and low records may vary slightly from our data, if they occured in-between our weather recording intervals... More about our weather records

Advertising

Tarnów Weather History for the Previous 24 Hours

Scroll right to see more
 ConditionsComfort  
Time TempWeatherWind HumidityBarometerVisibility
7:00 pm
Mon, Jan 16
19 °FFog.No wind92%30.30 "Hg1 mi
6:00 pm21 °FFog.1 mph86%30.28 "Hg3 mi
5:00 pm24 °FFog.1 mph81%30.26 "Hg4 mi
4:00 pm28 °FFog.No wind72%30.23 "Hg4 mi
3:00 pm31 °FChilly.1 mph67%30.21 "Hg7 mi
2:00 pm32 °FChilly.1 mph65%30.21 "Hg9 mi
1:00 pm31 °FChilly.1 mph65%30.19 "Hg10 mi
12:00 pm31 °FChilly.1 mph67%30.20 "Hg7 mi
11:00 am29 °FChilly.2 mph68%30.21 "Hg9 mi
10:00 am28 °FChilly.3 mph73%30.21 "Hg9 mi
9:00 am25 °FChilly.2 mph81%30.20 "Hg7 mi
8:00 am24 °FFog.2 mph84%30.19 "Hg6 mi
7:00 am24 °FFog.2 mph88%30.17 "Hg5 mi
6:00 am21 °FFog.2 mph92%30.15 "Hg5 mi
5:00 am22 °FFog.1 mph89%30.14 "Hg6 mi
4:00 am23 °FFog.1 mph86%30.14 "Hg6 mi
3:00 am25 °FFog.2 mph83%30.14 "Hg7 mi
2:00 am26 °FFog.1 mph85%30.14 "Hg6 mi
1:00 am26 °FFog.1 mph82%30.13 "Hg4 mi
12:00 am26 °FFog.No wind87%30.12 "Hg5 mi
11:00 pm
Sun, Jan 15
25 °FFog.1 mph95%30.12 "Hg3 mi
10:00 pm21 °FFog.1 mph94%30.12 "Hg2 mi
9:00 pm23 °FFog.1 mph94%30.11 "Hg2 mi
8:00 pm25 °FFog.1 mph95%30.10 "Hg2 mi
Weather by CustomWeather, © 2017

See weather overviewHow to use our weather pages